Wind_Speed
30 29 29 29 28 27 27 26 24 22 20 18 16 16 16 15 15 15 15 16 16 15 14 14 12 11 11 10 10 10 10 9 10 10 10 10 11 12 13 14 15 16 16 17
31 30 30 31 30 29 29 28 27 24 22 20 19 18 17 17 17 16 17 17 17 17 15 15 14 12 12 12 12 12 11 11 12 12 12 12 13 13 14 15 16 17 18 18
33 31 31 33 31 30 30 29 28 26 23 21 21 20 19 19 18 18 18 18 18 18 17 16 15 15 14 15 14 14 14 13 14 14 14 14 15 16 16 17 18 18 19 20
35 33 35 32 31 31 30 29 29 28 26 25 24 23 22 21 21 21 20 20 20 20 18 17 16 15 15 16 15 15 15 16 16 16 16 16 16 16 17 17 18 18 19 20
39 37 36 34 33 32 31 31 30 30 30 28 27 26 25 24 24 23 22 22 22 21 20 19 18 17 17 17 18 17 17 17 18 18 18 17 17 17 18 19 19 19 20 20
44 42 40 37 35 34 33 33 31 31 32 31 29 28 27 27 26 25 24 24 24 23 22 21 20 20 20 20 20 19 18 18 18 18 19 19 18 19 20 20 20 21 21 22
47 46 45 42 40 38 38 36 33 33 33 32 32 30 28 28 28 27 26 25 25 25 24 23 22 21 22 21 21 20 20 20 19 20 19 19 20 20 21 22 22 23 24 24
51 50 49 45 44 42 41 38 37 36 35 34 33 32 31 30 30 29 28 28 28 27 26 25 25 24 24 23 23 22 22 22 22 21 21 21 21 22 22 23 24 24 24 25
54 52 50 48 47 45 43 42 39 38 37 37 35 33 33 33 32 31 31 30 30 30 29 28 28 27 27 27 26 25 25 24 24 23 23 24 24 24 24 25 25 25 25 25
53 53 51 49 47 46 44 42 40 39 38 37 36 35 35 35 34 33 32 32 33 33 32 31 30 30 29 28 28 28 27 26 25 26 26 26 26 26 26 26 26 27 26 27
51 51 51 49 47 46 44 42 41 39 37 37 36 36 37 37 37 36 36 35 34 33 33 31 31 30 29 29 29 30 29 28 28 28 28 28 28 28 28 28 28 28 29 29
47 47 48 47 46 44 43 41 40 38 38 37 36 36 37 37 38 38 38 37 35 34 33 32 31 31 31 30 30 30 30 30 30 30 30 30 30 30 30 30 30 30 30 31
44 44 44 44 43 42 41 40 39 39 38 37 36 36 36 36 36 36 36 35 35 34 33 32 31 31 31 30 31 31 32 32 33 32 32 31 32 32 31 31 31 31 31 32
42 42 41 42 41 40 38 38 37 37 36 36 36 36 36 35 35 35 34 34 34 35 35 34 33 32 31 31 32 33 34 34 34 34 34 33 33 32 32 32 32 32 32 32
41 42 41 42 42 40 38 37 36 36 35 35 35 35 35 35 35 35 35 35 34 34 34 34 34 34 33 33 34 34 35 35 35 35 34 33 32 32 31 32 32 32 31 31
38 40 41 41 41 40 39 37 36 35 35 35 34 34 34 34 34 34 34 33 33 33 34 35 35 34 35 35 35 35 35 35 35 34 33 32 32 32 32 32 32 31 31 31
35 37 37 38 38 38 37 36 36 36 36 35 35 35 35 34 33 32 33 33 32 33 33 34 34 35 35 35 35 35 34 34 33 32 32 31 31 31 31 31 31 31 31 31
33 35 35 36 36 37 36 36 35 36 37 37 36 35 34 33 32 33 33 33 34 34 34 34 34 35 35 34 34 33 33 32 32 32 32 31 31 31 30 30 30 30 30 30
32 33 33 33 33 33 34 35 35 35 35 34 34 35 34 33 33 33 33 33 33 32 32 32 32 32 32 32 31 31 30 30 30 31 30 30 30 29 29 28 29 29 29 29
28 29 31 31 30 31 31 32 32 32 32 32 32 32 32 32 32 31 31 30 30 30 30 30 30 30 29 29 29 28 28 28 28 28 28 27 27 27 27 27 27 27 27 28
24 25 26 27 27 28 29 29 29 29 29 30 30 30 29 30 30 30 29 29 29 29 29 28 28 28 27 27 26 26 26 26 26 26 25 25 25 25 25 25 24 24 25 25
21 22 24 24 24 24 25 25 25 25 25 26 27 26 26 26 27 27 27 27 27 27 27 27 26 26 25 25 25 25 24 24 23 23 22 22 22 22 22 22 23 24 24 24
18 19 20 20 21 21 22 22 22 22 22 23 23 23 23 23 24 24 24 24 24 24 24 24 24 23 23 23 22 22 21 21 21 20 20 21 22 22 22 22 23 23 23 23
14 15 17 17 18 19 19 19 19 19 20 20 20 20 20 21 21 22 22 22 22 21 21 21 21 21 21 21 20 19 19 19 20 19 20 20 20 21 21 22 22 23 24 24
11 12 14 14 15 16 17 17 17 17 17 17 17 17 18 18 19 19 19 19 19 19 19 19 19 18 18 18 18 18 18 18 18 19 19 19 20 20 21 22 23 24 26 27
8 9 10 11 12 13 13 13 13 14 14 14 14 15 15 16 16 16 16 15 16 16 17 17 17 17 17 17 17 18 18 18 19 19 20 21 22 23 24 25 27 28 29 29
5 5 6 7 9 10 10 10 10 10 10 10 11 11 12 12 13 13 13 13 14 15 15 15 16 16 17 18 18 18 19 20 21 22 24 25 26 27 28 28 29 29 29 29
Wind_Direction
235 234 237 240 244 249 254 260 266 272 276 281 283 285 282 281 288 298 305 310 313 319 323 325 322 316 312 310 308 299 290 284 283 280 275 273 272 271 269 270 268 265 266 267
236 234 237 238 241 247 252 257 263 269 275 280 282 280 279 280 284 292 300 306 309 310 314 317 317 312 306 304 301 296 288 285 284 281 276 274 275 274 273 272 271 269 267 267
239 238 238 238 241 246 252 258 263 268 273 276 280 282 279 280 284 290 297 300 302 304 304 308 308 306 304 301 297 293 290 287 286 285 281 276 275 275 274 274 274 275 273 271
242 241 242 242 242 246 251 256 261 266 270 273 276 276 276 277 280 285 290 296 299 301 300 301 302 301 301 301 296 294 290 287 285 283 281 278 276 276 276 277 277 277 276 274
244 246 247 246 245 246 250 254 259 264 267 270 272 273 273 274 278 281 284 288 292 295 297 300 302 299 298 299 297 294 290 288 283 281 279 279 279 278 278 279 278 277 277 277
245 247 250 251 252 252 255 257 259 263 265 266 268 269 271 271 273 276 280 283 287 290 292 295 297 294 296 297 295 293 292 291 285 281 280 280 281 281 280 280 281 280 280 279
244 247 251 252 254 256 258 260 262 263 263 264 265 267 267 267 268 272 276 278 281 284 287 289 290 291 293 293 292 291 291 291 286 283 282 283 284 285 283 283 282 282 281 281
242 246 249 252 255 257 259 261 262 263 263 263 263 265 265 265 266 269 271 274 277 281 282 283 286 287 291 291 290 291 290 289 285 281 280 282 283 283 284 284 283 283 282 280
240 245 249 252 254 256 258 260 261 262 262 263 262 262 263 263 264 266 268 271 274 277 278 279 283 284 287 289 287 288 289 287 283 280 280 281 281 282 283 283 282 282 282 281
241 244 247 250 253 255 258 259 261 261 261 261 260 260 261 262 263 265 267 269 271 275 276 278 280 282 284 286 286 286 285 285 284 283 282 281 282 282 281 281 280 280 280 280
242 244 246 249 252 254 256 258 260 260 259 259 258 259 260 262 262 263 265 266 268 271 273 276 278 280 281 283 284 284 283 283 284 283 282 282 282 282 281 279 278 277 278 279
241 242 245 247 250 252 253 255 256 257 257 258 259 259 260 261 264 265 267 267 267 268 271 274 277 278 280 283 283 282 282 281 282 282 282 282 282 281 281 279 277 277 277 277
241 242 244 245 247 248 251 252 254 255 256 257 258 259 261 262 264 266 267 268 266 268 271 274 276 277 278 279 281 281 281 282 281 280 281 281 279 279 279 278 277 276 276 277
240 241 241 242 243 246 248 250 250 252 253 255 257 258 261 264 264 265 268 269 268 269 271 272 274 276 277 278 280 280 281 281 281 279 279 279 279 277 278 278 277 277 277 276
239 240 241 242 243 244 247 248 250 251 252 255 258 259 260 263 265 265 266 267 267 268 270 272 274 276 277 278 279 280 280 280 280 280 279 278 277 277 276 276 276 275 275 275
239 240 241 242 244 244 246 247 249 250 253 257 259 261 262 265 267 265 266 267 267 268 270 272 275 277 278 279 280 280 280 280 279 278 277 277 277 276 275 274 274 273 273 274
238 239 239 241 243 243 244 246 248 251 254 257 259 263 264 266 266 267 267 268 269 272 274 275 276 277 278 279 280 280 280 279 277 276 276 276 275 275 273 273 273 273 272 273
240 239 239 241 243 244 245 247 249 252 254 256 258 261 264 265 266 267 269 271 272 274 276 277 277 278 280 280 280 280 278 276 275 274 275 275 274 273 273 272 272 271 272 272
240 240 240 242 244 245 246 249 251 254 255 256 260 262 263 265 268 269 270 273 274 276 277 277 278 279 279 279 278 276 275 274 274 274 274 274 273 272 271 271 271 270 271 271
239 240 239 241 244 245 246 248 251 254 256 258 262 263 263 264 266 268 270 273 274 276 277 278 279 279 279 277 276 275 274 273 273 273 273 273 272 270 270 270 271 271 271 271
237 237 237 239 243 245 247 250 251 253 255 257 261 263 263 264 265 267 269 271 273 275 276 277 278 278 277 276 277 276 274 273 272 271 271 271 269 268 269 270 271 271 273 273
235 236 236 237 240 243 246 248 251 254 256 257 259 261 262 263 264 266 268 271 273 274 275 275 275 276 276 276 277 276 274 272 271 270 270 269 269 269 270 271 273 274 275 275
230 232 232 234 237 242 245 247 250 254 256 258 259 260 260 261 263 266 269 271 273 274 274 273 274 275 276 275 274 272 272 271 271 271 270 271 272 273 274 276 277 277 278 279
227 227 229 232 237 241 243 245 249 253 255 255 256 258 260 261 264 266 269 270 271 272 273 272 272 273 272 270 269 269 270 271 272 273 274 274 275 277 279 279 280 281 282 283
229 228 230 233 235 237 241 243 246 250 253 255 257 260 261 263 266 268 268 269 269 271 272 272 270 269 268 266 267 269 271 271 271 272 273 275 278 281 283 284 285 286 287 287
222 226 230 231 232 234 235 237 241 247 251 254 257 261 264 266 267 267 266 266 268 267 267 268 267 267 267 267 268 269 271 272 275 276 277 278 281 283 285 286 287 288 288 288
205 213 220 222 223 227 229 231 238 244 247 250 254 259 264 266 269 269 267 268 270 270 270 270 270 270 271 271 272 275 277 278 278 279 280 281 283 284 286 287 288 289 289 289
Height
5852 5855 5857 5859 5862 5864 5866 5868 5870 5872 5873 5874 5875 5875 5876 5876 5876 5876 5875 5874 5873 5872 5870 5869 5867 5866 5865 5864 5863 5862 5861 5861 5860 5860 5859 5859 5859 5858 5858 5858 5858 5858 5858 5858
5845 5848 5851 5853 5856 5858 5860 5862 5864 5866 5868 5870 5870 5871 5872 5872 5872 5872 5872 5871 5870 5869 5867 5866 5864 5863 5862 5861 5861 5860 5859 5858 5857 5857 5856 5856 5855 5855 5855 5854 5854 5854 5854 5854
5838 5842 5844 5846 5850 5853 5855 5857 5859 5861 5864 5865 5866 5867 5867 5868 5868 5868 5868 5867 5866 5865 5864 5862 5861 5860 5859 5858 5857 5857 5856 5855 5854 5853 5853 5852 5852 5851 5851 5850 5850 5849 5849 5849
5830 5834 5836 5843 5845 5847 5849 5851 5854 5856 5858 5859 5861 5862 5862 5863 5864 5864 5864 5863 5862 5861 5860 5858 5857 5856 5856 5855 5854 5853 5852 5851 5851 5850 5849 5848 5848 5847 5847 5846 5846 5845 5844 5844
5822 5825 5829 5834 5837 5841 5843 5846 5848 5850 5851 5853 5854 5855 5857 5858 5858 5859 5859 5858 5858 5857 5856 5854 5853 5852 5852 5850 5849 5848 5847 5846 5845 5845 5844 5844 5843 5842 5842 5841 5841 5840 5839 5838
5813 5817 5821 5827 5831 5833 5837 5838 5842 5843 5844 5846 5847 5849 5852 5852 5852 5852 5853 5852 5852 5851 5851 5850 5849 5848 5847 5845 5844 5843 5842 5841 5839 5839 5839 5839 5838 5837 5836 5836 5835 5834 5833 5833
5804 5808 5812 5818 5822 5826 5829 5832 5834 5835 5836 5838 5840 5842 5844 5844 5845 5845 5846 5846 5846 5845 5845 5844 5844 5843 5842 5840 5839 5838 5837 5836 5835 5834 5834 5833 5832 5831 5831 5830 5829 5828 5827 5826
5795 5799 5805 5809 5813 5817 5820 5823 5824 5826 5828 5830 5831 5833 5835 5836 5837 5837 5838 5839 5839 5838 5838 5838 5837 5836 5836 5834 5834 5833 5832 5831 5829 5828 5828 5827 5826 5826 5825 5823 5822 5821 5820 5819
5786 5792 5796 5800 5803 5807 5810 5813 5815 5817 5819 5821 5822 5824 5826 5827 5828 5829 5830 5830 5831 5831 5831 5831 5830 5830 5829 5828 5827 5826 5825 5824 5822 5822 5821 5821 5820 5819 5818 5817 5816 5815 5813 5812
5776 5781 5785 5789 5793 5797 5800 5803 5806 5808 5810 5812 5814 5815 5817 5819 5820 5821 5821 5822 5822 5822 5822 5822 5822 5821 5821 5820 5819 5818 5817 5816 5815 5815 5814 5814 5813 5812 5811 5809 5808 5807 5806 5805
5765 5770 5775 5779 5783 5787 5790 5793 5796 5798 5800 5802 5804 5806 5808 5809 5811 5812 5813 5813 5813 5813 5814 5814 5813 5813 5812 5811 5811 5810 5809 5808 5808 5807 5806 5806 5805 5804 5803 5802 5801 5800 5799 5797
5755 5761 5765 5770 5773 5777 5780 5784 5786 5789 5791 5793 5794 5796 5798 5799 5801 5802 5803 5804 5804 5805 5805 5805 5805 5804 5803 5803 5802 5802 5801 5800 5799 5798 5797 5797 5796 5795 5794 5793 5792 5791 5790 5789
5746 5750 5755 5760 5763 5767 5770 5774 5777 5779 5782 5784 5785 5787 5789 5790 5791 5792 5793 5794 5795 5796 5796 5796 5796 5796 5795 5794 5794 5793 5792 5791 5790 5789 5788 5787 5786 5785 5785 5784 5783 5782 5780 5779
5737 5741 5746 5750 5753 5757 5761 5764 5767 5770 5772 5774 5776 5777 5779 5781 5782 5782 5783 5784 5785 5785 5786 5786 5787 5787 5786 5785 5784 5783 5782 5782 5780 5779 5778 5777 5776 5775 5774 5774 5773 5772 5771 5769
5727 5732 5736 5740 5744 5748 5752 5755 5758 5761 5763 5765 5767 5768 5770 5771 5772 5773 5774 5774 5775 5776 5776 5776 5776 5776 5776 5775 5774 5773 5772 5771 5770 5769 5768 5767 5766 5765 5764 5763 5762 5761 5760 5759
5718 5722 5727 5731 5735 5739 5743 5746 5749 5751 5754 5756 5758 5759 5761 5762 5763 5764 5764 5765 5765 5766 5766 5766 5766 5766 5765 5765 5764 5762 5761 5760 5759 5758 5757 5756 5756 5755 5754 5753 5752 5751 5750 5750
5710 5714 5718 5722 5726 5730 5733 5737 5740 5742 5745 5747 5749 5750 5751 5753 5754 5754 5755 5756 5756 5756 5756 5756 5756 5755 5755 5754 5753 5752 5751 5750 5749 5748 5747 5746 5745 5744 5744 5743 5742 5741 5741 5740
5702 5706 5710 5714 5717 5721 5724 5728 5730 5733 5735 5737 5739 5741 5742 5743 5744 5745 5745 5746 5746 5746 5746 5746 5745 5744 5744 5743 5742 5741 5740 5739 5738 5737 5737 5736 5735 5734 5734 5733 5733 5732 5731 5730
5695 5699 5702 5706 5709 5712 5715 5718 5721 5723 5725 5727 5729 5731 5732 5733 5734 5735 5735 5736 5736 5736 5736 5735 5735 5734 5733 5732 5731 5730 5730 5729 5728 5727 5727 5726 5725 5725 5724 5724 5723 5723 5722 5721
5688 5691 5695 5698 5701 5704 5707 5710 5712 5715 5717 5718 5720 5721 5722 5723 5724 5725 5725 5726 5726 5726 5726 5725 5724 5724 5723 5722 5721 5721 5720 5719 5719 5718 5717 5717 5716 5716 5716 5715 5715 5714 5714 5713
5682 5684 5688 5691 5694 5697 5700 5702 5705 5707 5708 5710 5712 5713 5713 5714 5715 5715 5716 5716 5717 5716 5716 5716 5715 5714 5714 5713 5712 5711 5711 5710 5710 5710 5709 5709 5708 5708 5708 5707 5707 5706 5705 5705
5676 5679 5681 5685 5688 5690 5693 5695 5697 5699 5701 5702 5704 5705 5705 5706 5707 5707 5707 5708 5708 5707 5707 5706 5706 5705 5705 5704 5704 5703 5703 5702 5702 5702 5701 5701 5701 5701 5700 5700 5699 5698 5698 5697
5671 5673 5676 5679 5682 5684 5687 5689 5691 5693 5694 5695 5696 5697 5698 5698 5699 5699 5700 5700 5699 5699 5699 5698 5698 5697 5697 5697 5696 5696 5696 5696 5695 5695 5695 5694 5694 5694 5693 5693 5692 5691 5691 5690
5667 5669 5672 5674 5677 5679 5681 5683 5685 5686 5687 5688 5689 5690 5691 5691 5692 5692 5692 5692 5692 5692 5691 5691 5691 5690 5690 5690 5690 5689 5689 5689 5689 5689 5689 5688 5688 5687 5687 5686 5685 5684 5683 5682
5664 5666 5668 5670 5672 5674 5676 5678 5680 5681 5682 5683 5683 5684 5684 5685 5685 5686 5686 5686 5685 5685 5685 5685 5685 5684 5684 5684 5684 5683 5683 5683 5683 5683 5683 5682 5682 5681 5680 5679 5678 5677 5676 5675
5662 5664 5666 5667 5669 5671 5672 5674 5676 5677 5677 5678 5679 5679 5680 5680 5680 5680 5680 5680 5680 5680 5680 5680 5679 5679 5679 5679 5678 5678 5678 5678 5678 5677 5677 5676 5675 5674 5673 5672 5670 5669 5667 5666
5661 5663 5664 5665 5667 5668 5670 5671 5672 5673 5674 5675 5675 5676 5676 5676 5676 5676 5676 5676 5675 5675 5675 5675 5674 5674 5674 5674 5673 5673 5672 5672 5671 5671 5670 5669 5668 5666 5665 5663 5662 5660 5658 5656